Location: Cazarilh
(42.9578°N, 0.5819°E)
Time: 18:19:23
(UTC+00:00)

Cosmos 1340 - Pass Details

Date: 11 December 2019
Orbit: 502 x 506 km, 81.2° (Epoch: 22 January)

Event Time Altitude Azimuth Distance (km) Brightness Sun altitude
Rises 05:57:29 0° 206° (SSW) 2,586 6.2 -14.2°
Reaches altitude 10° 05:59:41 10° 214° (SW) 1,708 5.2 -13.9°
Maximum altitude 06:03:13 39° 284° (WNW) 774 3.1 -13.2°
Drops below altitude 10° 06:06:46 10° 355° (N) 1,724 5.1 -12.6°
Sets 06:09:01 0° 3° (N) 2,614 6.1 -12.3°
